Regional Weather Roundup
Issued by NWS

Home | Current Version | Previous Version | Text Only | Print | Product List | Glossary Off
Versions: 1 2 3 4 5 6 7 8 9 10 11 12 13 14 15 16 17 18 19 20 21 22 23 24 25 26 27 28 29 30 31 32 33 34 35 36 37 38 39 40 41 42 43 44 45 46 47 48 49 50

000
ASUS43 KLSX 270107
RWRMO

WEATHER SUMMARY FOR MISSOURI
NATIONAL WEATHER SERVICE SPRINGFIELD MO
700 PM CST MON JAN 26 2015

NOTE: "FAIR" INDICATES FEW OR NO CLOUDS BELOW 12,000 FEET WITH NO
       SIGNIFICANT WEATHER AND/OR OBSTRUCTIONS TO VISIBILITY.
       CURRENT SKY AND/OR WEATHER CONDITIONS ARE NOT AVAILABLE FOR
       CHILLICOTHE AND FARMINGTON.

MOZ001>031-035>038-043-044-053-054-270200-
...NORTHERN AND WESTERN MISSOURI...

CITY           SKY/WX    TMP DP  RH WIND       PRES   REMARKS
KANSAS CTY INT CLEAR     52  33  48 NW3       29.97R
KANSAS C DTWN  CLEAR     52  32  46 CALM      29.97R
LEE`S SUMMIT   CLEAR     52  32  46 NW6       29.97R
ST JOSEPH      CLEAR     38  29  70 W5        29.99R
CHILLICOTHE      N/A     48  35  60 NW5       29.95R
KIRKSVILLE     CLEAR     43  35  73 W7        29.90R

$$
MOZ066>068-077>081-088>096-101>105-270200-
...SOUTHWEST MISSOURI...

CITY           SKY/WX    TMP DP  RH WIND       PRES   REMARKS
SPRINGFIELD    CLEAR     49  35  58 CALM      29.97R
JOPLIN         CLEAR     47  33  58 SW7       29.99R

$$
MOZ032>034-039>042-045>050-055>058-069>072-270200-
...CENTRAL MISSOURI...

CITY           SKY/WX    TMP DP  RH WIND       PRES   REMARKS
COLUMBIA       CLEAR     45  35  68 W7        29.92R
JEFFERSON CITY CLEAR     46  35  65 NW5       29.93R
ROLLA          CLEAR     45  34  65 W8        29.90R
SEDALIA        CLEAR     47  35  63 W7        29.96R
WHITEMAN AFB   CLEAR     49  34  55 NW8       29.94R
WARRENSBURG    CLEAR     50  32  50 W6        29.96R
OSAGE BEACH    CLEAR     46  34  61 W3        29.94R

$$
MOZ051-052-059>065-270200-
...EAST CENTRAL MISSOURI...

CITY           SKY/WX    TMP DP  RH WIND       PRES   REMARKS
ST LOUIS INTL  NOT AVBL
SPIRIT OF STL  CLEAR     33  29  85 E5        29.90R WCI  29
ST CHARLES     CLEAR     32  29  88 E6        29.91S WCI  26

$$
MOZ072>076-082>087-097>100-106>115-270200-
...SOUTH CENTRAL AND SOUTHEAST MISSOURI...

CITY           SKY/WX    TMP DP  RH WIND       PRES   REMARKS
CAPE GIRARDEAU CLEAR     32  30  92 SE7       29.95F WCI  26
FARMINGTON     CLEAR     36  28  75 MISG      29.93S
POPLAR BLUFF   CLEAR     37  32  82 CALM      29.92R
WEST PLAINS    CLEAR     48  32  53 W9        29.93R

$$



USA.gov is the U.S. government's official web portal to all federal, state and local government web resources and services.